Aeroporto :
LOGIN :

Iscrizione | Disclaimer

   EN    FR    IT 

 










Sommario :    VFR   VFR Marginale   IFR   IFR Intensivo   IFR Molto Intensivo
Visibilità : 
Base nubi : 
>= 8 km
>= 3000ft
5 / 8 km
1000 / 3000 ft
1500m / 5 km
500 / 1000 ft
800 / 1500m
200 / 500 ft
< 800m
< 200 ft
Simboli :   Temporali  Nebbia  Neve Forte  Precipitazioni Forti  Vento > 20 kt
SIGMETs :   Varie  Temporali  Ghiacco  Turbolenza  Onda orograficha  Ceneri Vulcaniche






- Altitudine del aeroporto : 1674 ft
- Codice IATA : BRN


LSZB - Bern Belp

ULTIMO METAR :
  • 080620Z VRB02KT CAVOK 19/16 Q1022 NOSIG

METARs OBSOLETI :
  • 080550Z VRB02KT CAVOK 17/16 Q1022 NOSIG
  • 080520Z VRB02KT CAVOK 15/15 Q1022 NOSIG
  • 080450Z 00000KT CAVOK 14/14 Q1022 NOSIG
  • 080420Z VRB02KT CAVOK 14/14 Q1022 NOSIG
  • 080350Z AUTO VRB01KT 8000 NCD 15/15 Q1022

TAF TAF LSZB
Valido dal 08 a 06 ore il 08 a 15 ore UTC


080525Z 0806/0815 VRB03KT CAVOK
BECMG 0813/0815 05010KT
ATIS : +41 22 417 40 76



MetMap, La meteo Aeronautica in un colpo d'occhio ! - Copyright ORBIFLY Dicembre 2007 - Disclaimer

ORBIFLY MET'MAP TEAM :

Programmazione e sviluppo : Alexandra Zaïnal
Concezione : Baudouin d'Aumeries
Aiuto per la programmazione : Marc-Olivier Méhu
Supporto tecnico e logistico : Manuel Goepfert
Aiuto per la traduzione : Arnaldo La Scala

Contatto : metmap@orbifly.com




FONTI E CREDITI :

   NOAA